TVJ106 VTBS-VTCC

Flight info

Callsign TVJ106
Flight time 1h 2m
Altitude 36000
Route OLVUK1E OLVUK Y26 MARNI MARNI2A
Aircraft A321/M-SDE3FGHIRWY/LB1

Departure

Time 2026-05-06 10:08
Airport Suvarnabhumi Airport (VTBS)

Arrival

Time 2026-05-06 11:11
Airport Chiang Mai International Airport (VTCC)
Time Latitude Longitude Altitude Speed Heading
2026-05-06 09:48 13.69442 100.74662 13 ft 0 kts 104°
2026-05-06 09:59 13.69442 100.74660 13 ft 2 kts 104°
2026-05-06 09:59 13.69449 100.74634 13 ft 4 kts 104°
2026-05-06 09:59 13.69455 100.74608 15 ft 3 kts 104°
2026-05-06 09:59 13.69459 100.74586 13 ft 4 kts 70°
2026-05-06 10:00 13.69444 100.74568 15 ft 4 kts 22°
2026-05-06 10:00 13.69429 100.74563 15 ft 1 kts 15°
2026-05-06 10:00 13.69427 100.74562 15 ft 0 kts 15°
2026-05-06 10:02 13.69444 100.74567 15 ft 7 kts 15°
2026-05-06 10:03 13.69478 100.74577 14 ft 4 kts 15°
2026-05-06 10:03 13.69501 100.74583 13 ft 3 kts 13°
2026-05-06 10:03 13.69518 100.74587 13 ft 2 kts 15°
2026-05-06 10:03 13.69561 100.74599 13 ft 12 kts 15°
2026-05-06 10:04 13.69661 100.74627 13 ft 15 kts 15°
2026-05-06 10:04 13.69762 100.74653 13 ft 14 kts 10°
2026-05-06 10:04 13.69834 100.74611 13 ft 13 kts 291°
2026-05-06 10:04 13.69856 100.74526 15 ft 12 kts 284°
2026-05-06 10:05 13.69875 100.74449 13 ft 11 kts 284°
2026-05-06 10:05 13.69888 100.74399 13 ft 4 kts 286°
2026-05-06 10:05 13.69898 100.74387 13 ft 1 kts 335°
2026-05-06 10:05 13.69920 100.74392 13 ft 8 kts 11°
2026-05-06 10:06 13.70003 100.74414 14 ft 17 kts 14°
2026-05-06 10:06 13.70124 100.74444 14 ft 17 kts 13°
2026-05-06 10:06 13.70237 100.74472 13 ft 17 kts 13°
2026-05-06 10:06 13.70335 100.74443 14 ft 15 kts 295°
2026-05-06 10:07 13.70344 100.74339 15 ft 13 kts 277°
2026-05-06 10:07 13.70327 100.74305 15 ft 4 kts 194°
2026-05-06 10:07 13.70299 100.74296 15 ft 7 kts 196°
2026-05-06 10:07 13.70084 100.74239 14 ft 65 kts 194°
2026-05-06 10:08 13.69450 100.74077 11 ft 120 kts 194°
2026-05-06 10:08 13.68502 100.73828 15 ft 160 kts 194°
2026-05-06 10:08 13.67341 100.73532 243 ft 174 kts 196°
2026-05-06 10:08 13.66176 100.73255 857 ft 171 kts 193°
2026-05-06 10:09 13.65010 100.72964 1370 ft 172 kts 195°
2026-05-06 10:09 13.63850 100.72614 1834 ft 179 kts 196°
2026-05-06 10:09 13.62583 100.72232 2007 ft 201 kts 195°
2026-05-06 10:09 13.61180 100.71827 2190 ft 222 kts 194°
2026-05-06 10:10 13.59590 100.71394 2421 ft 248 kts 194°
2026-05-06 10:10 13.57859 100.70939 2892 ft 263 kts 192°
2026-05-06 10:10 13.56061 100.70483 3560 ft 269 kts 194°
2026-05-06 10:10 13.54437 100.69632 4228 ft 277 kts 221°
2026-05-06 10:11 13.53391 100.67971 4964 ft 283 kts 252°
2026-05-06 10:11 13.53311 100.65962 5667 ft 286 kts 282°
2026-05-06 10:11 13.53799 100.63973 6439 ft 288 kts 285°
2026-05-06 10:11 13.54287 100.62079 7124 ft 289 kts 284°
2026-05-06 10:12 13.54998 100.60142 7840 ft 292 kts 301°
2026-05-06 10:12 13.56318 100.58556 8502 ft 295 kts 323°
2026-05-06 10:12 13.58119 100.57549 9164 ft 298 kts 343°
2026-05-06 10:12 13.60170 100.57254 9785 ft 300 kts
2026-05-06 10:13 13.62263 100.57304 9954 ft 300 kts
2026-05-06 10:13 13.64330 100.57369 10009 ft 321 kts
2026-05-06 10:13 13.66641 100.57445 10006 ft 340 kts
2026-05-06 10:13 13.69042 100.57521 10359 ft 348 kts
2026-05-06 10:14 13.71475 100.57592 10932 ft 352 kts
2026-05-06 10:14 13.73928 100.57658 11528 ft 355 kts
2026-05-06 10:14 13.76401 100.57561 12098 ft 358 kts 352°
2026-05-06 10:14 13.78819 100.56925 12672 ft 361 kts 339°
2026-05-06 10:15 13.81065 100.55760 13241 ft 364 kts 328°
2026-05-06 10:15 13.83227 100.54383 13785 ft 367 kts 328°
2026-05-06 10:15 13.85405 100.53007 14293 ft 369 kts 329°
2026-05-06 10:15 13.87551 100.51657 14803 ft 371 kts 329°
2026-05-06 10:16 13.89662 100.50335 15290 ft 374 kts 329°
2026-05-06 10:16 13.91891 100.48942 15799 ft 376 kts 329°
2026-05-06 10:16 13.94000 100.47699 16254 ft 378 kts 335°
2026-05-06 10:16 13.96460 100.46745 16737 ft 379 kts 343°
2026-05-06 10:17 13.98988 100.45947 17216 ft 381 kts 343°
2026-05-06 10:17 14.01532 100.45147 17689 ft 384 kts 343°
2026-05-06 10:17 14.04098 100.44340 18141 ft 387 kts 343°
2026-05-06 10:17 14.06683 100.43526 18527 ft 389 kts 343°
2026-05-06 10:18 14.09274 100.42707 18916 ft 391 kts 343°
2026-05-06 10:18 14.11852 100.41889 19294 ft 394 kts 343°
2026-05-06 10:18 14.14473 100.41055 19661 ft 396 kts 343°
2026-05-06 10:18 14.17119 100.40210 20023 ft 398 kts 343°
2026-05-06 10:19 14.19773 100.39365 20371 ft 401 kts 343°
2026-05-06 10:19 14.22443 100.38516 20737 ft 403 kts 343°
2026-05-06 10:19 14.25130 100.37660 21093 ft 405 kts 343°
2026-05-06 10:19 14.27828 100.36803 21446 ft 407 kts 343°
2026-05-06 10:20 14.30546 100.35942 21797 ft 409 kts 343°
2026-05-06 10:20 14.33275 100.35077 22149 ft 411 kts 343°
2026-05-06 10:20 14.36019 100.34206 22477 ft 414 kts 343°
2026-05-06 10:20 14.38777 100.33328 22801 ft 416 kts 343°
2026-05-06 10:21 14.41546 100.32446 23137 ft 418 kts 343°
2026-05-06 10:21 14.44335 100.31558 23439 ft 420 kts 343°
2026-05-06 10:21 14.47090 100.30548 23699 ft 422 kts 335°
2026-05-06 10:21 14.49736 100.29218 23953 ft 424 kts 334°
2026-05-06 10:22 14.52392 100.27871 24233 ft 426 kts 334°
2026-05-06 10:22 14.55053 100.26524 24505 ft 427 kts 334°
2026-05-06 10:22 14.57731 100.25176 24780 ft 429 kts 334°
2026-05-06 10:22 14.60277 100.23897 25039 ft 431 kts 334°
2026-05-06 10:23 14.62978 100.22542 25307 ft 433 kts 334°
2026-05-06 10:23 14.65703 100.21208 25567 ft 434 kts 338°
2026-05-06 10:23 14.68563 100.20188 25822 ft 436 kts 342°
2026-05-06 10:23 14.71385 100.19252 26070 ft 438 kts 342°
2026-05-06 10:24 14.74287 100.18289 26314 ft 440 kts 342°
2026-05-06 10:24 14.77206 100.17319 26564 ft 441 kts 342°
2026-05-06 10:24 14.80138 100.16344 26816 ft 443 kts 342°
2026-05-06 10:24 14.83075 100.15368 27062 ft 445 kts 342°
2026-05-06 10:25 14.86029 100.14386 27304 ft 446 kts 342°
2026-05-06 10:25 14.88987 100.13401 27552 ft 448 kts 342°
2026-05-06 10:25 14.91958 100.12411 27788 ft 450 kts 342°
2026-05-06 10:25 14.94940 100.11417 28022 ft 451 kts 342°
2026-05-06 10:26 14.97935 100.10418 28259 ft 453 kts 342°
2026-05-06 10:26 15.00936 100.09419 28484 ft 454 kts 342°
2026-05-06 10:26 15.03951 100.08417 28714 ft 456 kts 342°
2026-05-06 10:26 15.06935 100.07425 28928 ft 457 kts 342°
2026-05-06 10:27 15.09964 100.06416 29133 ft 459 kts 342°
2026-05-06 10:27 15.13010 100.05398 29339 ft 460 kts 342°
2026-05-06 10:27 15.16061 100.04380 29545 ft 462 kts 342°
2026-05-06 10:27 15.19124 100.03360 29753 ft 463 kts 342°
2026-05-06 10:28 15.22198 100.02335 29936 ft 465 kts 342°
2026-05-06 10:28 15.25283 100.01304 30121 ft 466 kts 342°
2026-05-06 10:28 15.28375 100.00269 30315 ft 468 kts 342°
2026-05-06 10:28 15.31385 99.99264 30531 ft 468 kts 342°
2026-05-06 10:29 15.34477 99.98231 30825 ft 467 kts 342°
2026-05-06 10:29 15.37565 99.97200 31111 ft 466 kts 342°
2026-05-06 10:29 15.40652 99.96170 31408 ft 465 kts 342°
2026-05-06 10:29 15.43720 99.95143 31709 ft 464 kts 342°
2026-05-06 10:30 15.46787 99.94113 32008 ft 463 kts 341°
2026-05-06 10:30 15.49846 99.93087 32312 ft 462 kts 342°
2026-05-06 10:30 15.52901 99.92065 32614 ft 461 kts 342°
2026-05-06 10:30 15.55952 99.91045 32908 ft 460 kts 342°
2026-05-06 10:31 15.58993 99.90029 33210 ft 459 kts 342°
2026-05-06 10:31 15.62031 99.89014 33507 ft 458 kts 342°
2026-05-06 10:31 15.65064 99.88002 33804 ft 457 kts 342°
2026-05-06 10:31 15.68083 99.86991 34065 ft 456 kts 342°
2026-05-06 10:32 15.71104 99.85978 34330 ft 455 kts 341°
2026-05-06 10:32 15.74115 99.84970 34578 ft 455 kts 341°
2026-05-06 10:32 15.77126 99.83960 34824 ft 454 kts 341°
2026-05-06 10:32 15.80084 99.82968 35076 ft 453 kts 341°
2026-05-06 10:33 15.83083 99.81961 35317 ft 453 kts 341°
2026-05-06 10:33 15.86076 99.80957 35573 ft 452 kts 341°
2026-05-06 10:33 15.89068 99.79951 35722 ft 452 kts 341°
2026-05-06 10:33 15.92043 99.78948 35757 ft 448 kts 341°
2026-05-06 10:34 15.97953 99.76957 35761 ft 446 kts 341°
2026-05-06 10:34 16.03849 99.74977 35762 ft 445 kts 341°
2026-05-06 10:35 16.09740 99.73001 35760 ft 445 kts 341°
2026-05-06 10:35 16.15623 99.71012 35759 ft 444 kts 341°
2026-05-06 10:36 16.21499 99.69028 35767 ft 444 kts 341°
2026-05-06 10:36 16.27380 99.67047 35766 ft 444 kts 341°
2026-05-06 10:37 16.33252 99.65074 35760 ft 443 kts 341°
2026-05-06 10:37 16.39117 99.63098 35764 ft 443 kts 341°
2026-05-06 10:38 16.44984 99.61112 35765 ft 443 kts 341°
2026-05-06 10:38 16.50806 99.59140 35767 ft 443 kts 341°
2026-05-06 10:39 16.55727 99.57479 35770 ft 443 kts 341°
2026-05-06 10:39 16.62540 99.55170 35771 ft 443 kts 341°
2026-05-06 10:40 16.67451 99.53505 35768 ft 443 kts 340°
2026-05-06 10:40 16.74264 99.51200 35772 ft 443 kts 341°
2026-05-06 10:41 16.79131 99.49553 35766 ft 443 kts 340°
2026-05-06 10:41 16.84992 99.47572 35767 ft 443 kts 340°
2026-05-06 10:42 16.90846 99.45583 35771 ft 443 kts 340°
2026-05-06 10:42 16.96719 99.43588 35061 ft 448 kts 340°
2026-05-06 10:43 16.99698 99.42579 34325 ft 452 kts 340°
2026-05-06 10:43 17.02713 99.41555 33420 ft 459 kts 340°
2026-05-06 10:43 17.05764 99.40520 32666 ft 461 kts 340°
2026-05-06 10:44 17.11816 99.38465 31594 ft 455 kts 341°
2026-05-06 10:44 17.14812 99.37448 31033 ft 452 kts 341°
2026-05-06 10:44 17.17802 99.36432 30466 ft 450 kts 341°
2026-05-06 10:44 17.20770 99.35420 29922 ft 448 kts 341°
2026-05-06 10:45 17.23724 99.34410 29317 ft 445 kts 341°
2026-05-06 10:45 17.26656 99.33408 28779 ft 441 kts 341°
2026-05-06 10:45 17.29563 99.32417 28246 ft 437 kts 341°
2026-05-06 10:45 17.32439 99.31437 27694 ft 433 kts 341°
2026-05-06 10:46 17.35249 99.30477 27211 ft 429 kts 341°
2026-05-06 10:46 17.38073 99.29515 26684 ft 425 kts 341°
2026-05-06 10:46 17.40874 99.28561 26198 ft 421 kts 341°
2026-05-06 10:46 17.43652 99.27613 25703 ft 418 kts 341°
2026-05-06 10:47 17.46415 99.26701 25231 ft 415 kts 342°
2026-05-06 10:47 17.49190 99.25912 24745 ft 412 kts 345°
2026-05-06 10:47 17.51968 99.25221 24279 ft 409 kts 346°
2026-05-06 10:47 17.54737 99.24579 23811 ft 406 kts 346°
2026-05-06 10:48 17.57496 99.23943 23322 ft 405 kts 346°
2026-05-06 10:48 17.60230 99.23299 22786 ft 401 kts 346°
2026-05-06 10:48 17.62933 99.22646 22309 ft 397 kts 345°
2026-05-06 10:48 17.65411 99.22033 21867 ft 393 kts 345°
2026-05-06 10:49 17.68056 99.21368 21382 ft 389 kts 345°
2026-05-06 10:49 17.70678 99.20705 20911 ft 386 kts 345°
2026-05-06 10:49 17.73279 99.20043 20431 ft 383 kts 345°
2026-05-06 10:49 17.75861 99.19386 19948 ft 381 kts 345°
2026-05-06 10:50 17.78430 99.18735 19472 ft 379 kts 345°
2026-05-06 10:50 17.80994 99.18090 18994 ft 377 kts 345°
2026-05-06 10:50 17.83506 99.17458 18524 ft 376 kts 345°
2026-05-06 10:50 17.86043 99.16822 18050 ft 374 kts 345°
2026-05-06 10:51 17.88567 99.16190 17527 ft 372 kts 345°
2026-05-06 10:51 17.91076 99.15562 17074 ft 369 kts 345°
2026-05-06 10:51 17.93565 99.14937 16619 ft 366 kts 345°
2026-05-06 10:51 17.96036 99.14317 16165 ft 364 kts 345°
2026-05-06 10:52 17.98490 99.13701 15722 ft 361 kts 345°
2026-05-06 10:52 18.00921 99.13089 15281 ft 359 kts 345°
2026-05-06 10:52 18.03340 99.12480 14840 ft 356 kts 345°
2026-05-06 10:52 18.05749 99.11873 14399 ft 355 kts 345°
2026-05-06 10:53 18.08143 99.11268 13961 ft 353 kts 345°
2026-05-06 10:53 18.10378 99.10700 13534 ft 352 kts 345°
2026-05-06 10:53 18.12765 99.10250 13060 ft 348 kts 355°
2026-05-06 10:53 18.15159 99.10433 12663 ft 344 kts 11°
2026-05-06 10:54 18.17393 99.11243 12470 ft 339 kts 24°
2026-05-06 10:54 18.19495 99.12310 12221 ft 331 kts 24°
2026-05-06 10:54 18.21543 99.13353 11975 ft 323 kts 24°
2026-05-06 10:54 18.23450 99.14506 11719 ft 318 kts 37°
2026-05-06 10:55 18.24961 99.16160 11483 ft 313 kts 51°
2026-05-06 10:55 18.26262 99.17965 11241 ft 307 kts 51°
2026-05-06 10:55 18.27541 99.19739 11006 ft 301 kts 51°
2026-05-06 10:55 18.28792 99.21466 10946 ft 287 kts 51°
2026-05-06 10:56 18.29977 99.23103 11005 ft 278 kts 51°
2026-05-06 10:56 18.31149 99.24714 11011 ft 277 kts 49°
2026-05-06 10:56 18.32535 99.26089 11010 ft 273 kts 32°
2026-05-06 10:56 18.34190 99.26990 11011 ft 270 kts 16°
2026-05-06 10:57 18.35975 99.27613 11011 ft 270 kts 16°
2026-05-06 10:57 18.37756 99.28245 11012 ft 270 kts 16°
2026-05-06 10:57 18.39539 99.28877 11011 ft 270 kts 13°
2026-05-06 10:57 18.41379 99.29169 11014 ft 266 kts 356°
2026-05-06 10:58 18.42619 99.29056 11015 ft 264 kts 346°
2026-05-06 10:59 18.43318 99.28907 11014 ft 263 kts 343°
2026-05-06 10:59 18.45086 99.28426 11014 ft 264 kts 345°
2026-05-06 10:59 18.46891 99.28043 11016 ft 264 kts 347°
2026-05-06 10:59 18.48597 99.27403 11016 ft 260 kts 324°
2026-05-06 11:00 18.49833 99.26060 11018 ft 255 kts 297°
2026-05-06 11:00 18.50355 99.24284 10800 ft 257 kts 271°
2026-05-06 11:00 18.50042 99.22457 10493 ft 255 kts 245°
2026-05-06 11:00 18.49204 99.20814 10193 ft 254 kts 242°
2026-05-06 11:01 18.48362 99.19182 9923 ft 253 kts 243°
2026-05-06 11:01 18.47533 99.17552 9632 ft 252 kts 243°
2026-05-06 11:01 18.46711 99.15923 9330 ft 251 kts 243°
2026-05-06 11:01 18.45895 99.14303 9040 ft 250 kts 243°
2026-05-06 11:02 18.45080 99.12687 8753 ft 248 kts 243°
2026-05-06 11:02 18.44270 99.11085 8469 ft 247 kts 243°
2026-05-06 11:02 18.43495 99.09474 8195 ft 246 kts 249°
2026-05-06 11:02 18.43034 99.07751 7926 ft 244 kts 262°
2026-05-06 11:03 18.42952 99.05966 7736 ft 242 kts 270°
2026-05-06 11:03 18.42969 99.04230 7524 ft 233 kts 270°
2026-05-06 11:03 18.42975 99.02545 7317 ft 228 kts 269°
2026-05-06 11:03 18.42977 99.00933 7122 ft 227 kts 270°
2026-05-06 11:04 18.43268 98.99272 6766 ft 228 kts 290°
2026-05-06 11:04 18.44066 98.97872 6623 ft 228 kts 309°
2026-05-06 11:04 18.45289 98.96814 6437 ft 230 kts 329°
2026-05-06 11:04 18.46797 98.96263 6221 ft 231 kts 351°
2026-05-06 11:05 18.48408 98.96211 5942 ft 233 kts 359°
2026-05-06 11:05 18.50026 98.96219 5644 ft 231 kts 359°
2026-05-06 11:05 18.51630 98.96224 5355 ft 230 kts 359°
2026-05-06 11:05 18.53225 98.96228 5063 ft 228 kts 359°
2026-05-06 11:06 18.54809 98.96233 4775 ft 228 kts 359°
2026-05-06 11:06 18.56389 98.96237 4491 ft 227 kts 359°
2026-05-06 11:06 18.57960 98.96241 4201 ft 225 kts 360°
2026-05-06 11:06 18.59522 98.96244 3917 ft 224 kts 360°
2026-05-06 11:07 18.61071 98.96249 3647 ft 220 kts 360°
2026-05-06 11:07 18.62572 98.96252 3372 ft 211 kts 360°
2026-05-06 11:07 18.63996 98.96256 3094 ft 198 kts
2026-05-06 11:07 18.65302 98.96259 2876 ft 177 kts
2026-05-06 11:08 18.66474 98.96262 2652 ft 162 kts
2026-05-06 11:08 18.67580 98.96265 2447 ft 156 kts
2026-05-06 11:08 18.68652 98.96268 2283 ft 152 kts
2026-05-06 11:08 18.69700 98.96270 2103 ft 149 kts
2026-05-06 11:09 18.70729 98.96273 1928 ft 147 kts
2026-05-06 11:09 18.71737 98.96273 1721 ft 146 kts 360°
2026-05-06 11:09 18.72755 98.96268 1560 ft 145 kts
2026-05-06 11:09 18.73758 98.96269 1373 ft 143 kts
2026-05-06 11:10 18.74421 98.96282 1272 ft 145 kts
2026-05-06 11:10 18.75746 98.96285 1056 ft 143 kts 360°
2026-05-06 11:10 18.76659 98.96287 1032 ft 110 kts
2026-05-06 11:10 18.77235 98.96289 1032 ft 59 kts
2026-05-06 11:11 18.77499 98.96323 1032 ft 33 kts 23°
2026-05-06 11:11 18.77644 98.96409 1032 ft 16 kts 31°
2026-05-06 11:11 18.77701 98.96482 1032 ft 12 kts 100°
2026-05-06 11:11 18.77636 98.96519 1032 ft 11 kts 180°
2026-05-06 11:12 18.77565 98.96518 1032 ft 10 kts 180°
2026-05-06 11:12 18.77501 98.96518 1032 ft 9 kts 180°
2026-05-06 11:12 18.77445 98.96518 1032 ft 7 kts 180°
2026-05-06 11:12 18.77381 98.96518 1032 ft 13 kts 179°
2026-05-06 11:13 18.77297 98.96519 1032 ft 12 kts 179°
2026-05-06 11:13 18.77221 98.96520 1032 ft 9 kts 179°
2026-05-06 11:13 18.77167 98.96520 1032 ft 6 kts 179°
2026-05-06 11:13 18.77142 98.96524 1032 ft 3 kts 162°
2026-05-06 11:14 18.77122 98.96541 1032 ft 4 kts 131°
2026-05-06 11:14 18.77096 98.96572 1032 ft 7 kts 131°
2026-05-06 11:14 18.77056 98.96615 1032 ft 10 kts 144°
2026-05-06 11:14 18.76986 98.96644 1032 ft 12 kts 166°
2026-05-06 11:15 18.76918 98.96652 1032 ft 8 kts 166°
2026-05-06 11:15 18.76875 98.96650 1032 ft 6 kts 183°
2026-05-06 11:15 18.76848 98.96665 1032 ft 4 kts 117°
2026-05-06 11:15 18.76843 98.96690 1032 ft 4 kts 96°
2026-05-06 11:16 18.76843 98.96718 1032 ft 4 kts 89°
2026-05-06 11:16 18.76843 98.96734 1032 ft 0 kts 90°